Kingsville NAS, TX

4:17 PM CDT on March 26, 2017 (GMT -0500)
Kingsville Naval Air Station

Weather History for KNQI - September, 2013

Change the Weather History Date:

Thursday, September 19, 2013

  Actual Average Record
Temperature  
Mean Temperature 84 °F -  
Max Temperature 91 °F 87 °F 99 °F (2016)
Min Temperature 77 °F 69 °F 64 °F (2000)
Cooling Degree Days 19    
Growing Degree Days 34 (Base 50)    
Moisture  
Dew Point 77 °F    
Average Humidity 87    
Maximum Humidity 96    
Minimum Humidity 63    
Precipitation  
Precipitation 0.09 in - - ()
Sea Level Pressure  
Sea Level Pressure 29.85 in    
Wind  
Wind Speed 7 mph (East)    
Max Wind Speed 16 mph    
Max Gust Speed 31 mph    
Visibility 10 miles    
Events Rain    
Averages and records for this station are not official NWS values.
T = Trace of Precipitation, MM = Missing Value Source: NWS Daily Summary

Daily Weather History Graph

Daily Weather History Graph

Search for Another Location

Airport or City:

Trip Planner

Search our weather history database for the weather conditions in past years. The results will help you decide how hot, cold, wet, or windy it might be!

Date:

Astronomy

Sep. 19, 2013 Rise Set
Actual Time 7:18 AM CDT 7:30 PM CDT
Civil Twilight 6:55 AM CDT 7:54 PM CDT
Nautical Twilight 6:27 AM CDT 8:21 PM CDT
Astronomical Twilight 6:00 AM CDT 8:48 PM CDT
Moon 7:37 PM CDT (9/19) 7:24 AM CDT (9/19)
Length of Visible Light 12h 59m
Length of Day
12h 12m
Full, 100% of the Moon is Illuminated
Sep 19
Full
Sep 26
Last Quarter
Oct 4
New
Oct 11
First Quarter
Oct 18
Full

Hourly Weather History & Observations

Time (CDT) Temp. Heat Index Dew Point Humidity Pressure Visibility Wind Dir Wind Speed Gust Speed Precip Events Conditions
12:56 AM 77.0 °F - 75.9 °F 96% 29.88 in 10.0 mi North - - N/A   Clear
1:17 AM 77.0 °F - 75.2 °F 94% 29.89 in 10.0 mi ESE 10.4 mph 31.1 mph N/A   Squalls
1:56 AM 77.0 °F - 75.9 °F 96% 29.88 in 10.0 mi ENE 3.5 mph - N/A   Partly Cloudy
2:56 AM 77.0 °F - 75.9 °F 96% 29.86 in 10.0 mi East 3.5 mph - N/A   Clear
3:56 AM 77.0 °F - 75.9 °F 96% 29.86 in 10.0 mi Calm Calm - N/A   Clear
4:56 AM 77.0 °F - 75.9 °F 96% 29.85 in 10.0 mi Calm Calm - N/A   Mostly Cloudy
5:25 AM 77.0 °F - 75.2 °F 94% 29.86 in 10.0 mi East 4.6 mph - 0.03 in   Mostly Cloudy
5:56 AM 77.0 °F - 75.9 °F 96% 29.85 in 10.0 mi ENE 3.5 mph - 0.03 in   Clear
6:56 AM 77.0 °F - 75.9 °F 96% 29.86 in 9.0 mi NE 3.5 mph - N/A   Mostly Cloudy
7:56 AM 77.0 °F - 75.9 °F 96% 29.86 in 8.0 mi NNE 3.5 mph - N/A   Scattered Clouds
8:56 AM 82.0 °F 91.6 °F 79.0 °F 90% 29.88 in 10.0 mi ENE 3.5 mph - N/A   Scattered Clouds
9:56 AM 84.9 °F 97.5 °F 79.0 °F 82% 29.89 in 10.0 mi ESE 8.1 mph - N/A   Scattered Clouds
10:56 AM 87.1 °F 98.8 °F 77.0 °F 72% 29.89 in 10.0 mi East 8.1 mph - N/A   Scattered Clouds
11:56 AM 88.0 °F 97.5 °F 75.0 °F 65% 29.88 in 10.0 mi ESE 6.9 mph - N/A   Scattered Clouds
12:56 PM 91.0 °F 104.2 °F 77.0 °F 63% 29.86 in 10.0 mi East 5.8 mph - N/A   Mostly Cloudy
1:18 PM 86.0 °F 96.9 °F 77.0 °F 74% 29.87 in 6.0 mi East 16.1 mph 23.0 mph 0.01 in Rain Light Rain
1:35 PM 87.8 °F 102.5 °F 78.8 °F 75% 29.86 in 10.0 mi East 11.5 mph - 0.02 in   Mostly Cloudy
1:56 PM 90.0 °F 105.8 °F 79.0 °F 70% 29.84 in 10.0 mi East 13.8 mph - 0.02 in   Mostly Cloudy
2:11 PM 84.2 °F 98.3 °F 80.6 °F 89% 29.84 in 7.0 mi ESE 8.1 mph 19.6 mph 0.01 in Rain Light Rain
2:48 PM 84.2 °F 96.1 °F 78.8 °F 84% 29.84 in 10.0 mi East 10.4 mph - 0.01 in   Mostly Cloudy
2:56 PM 86.0 °F 99.3 °F 79.0 °F 79% 29.82 in 10.0 mi East 10.4 mph - 0.01 in   Mostly Cloudy
3:56 PM 89.1 °F 101.4 °F 77.0 °F 67% 29.81 in 10.0 mi East 16.1 mph - N/A   Mostly Cloudy
4:56 PM 84.9 °F 96.6 °F 78.1 °F 80% 29.81 in 7.0 mi ESE 15.0 mph 24.2 mph 0.00 in Rain Light Rain
5:12 PM 82.4 °F 92.4 °F 78.8 °F 89% 29.81 in 10.0 mi ESE 9.2 mph - 0.02 in   Mostly Cloudy
5:56 PM 81.0 °F 87.9 °F 77.0 °F 88% 29.79 in 10.0 mi East 9.2 mph - 0.02 in   Mostly Cloudy
6:56 PM 84.0 °F 94.8 °F 78.1 °F 82% 29.79 in 10.0 mi East 9.2 mph - N/A   Mostly Cloudy
7:56 PM 82.0 °F 91.0 °F 78.1 °F 88% 29.81 in 10.0 mi East 6.9 mph - N/A   Mostly Cloudy
8:56 PM 80.1 °F 86.4 °F 78.1 °F 94% 29.81 in 10.0 mi East 6.9 mph - N/A   Scattered Clouds
9:56 PM 80.1 °F 86.4 °F 78.1 °F 94% 29.83 in 10.0 mi East 4.6 mph - N/A   Scattered Clouds
10:39 PM 80.6 °F 88.1 °F 78.8 °F 94% 29.84 in 10.0 mi ESE 4.6 mph - 0.01 in Rain Light Rain
10:46 PM 80.6 °F 88.1 °F 78.8 °F 94% 29.84 in 10.0 mi East 3.5 mph - 0.01 in   Mostly Cloudy
10:56 PM 80.1 °F 86.7 °F 79.0 °F 96% 29.83 in 10.0 mi East 3.5 mph - 0.01 in   Mostly Cloudy
11:56 PM 80.1 °F 86.4 °F 78.1 °F 94% 29.82 in 10.0 mi SE 4.6 mph - N/A   Mostly Cloudy